Location: Newark
(45.2672°N, 1.7656°E)
Time: 13:20:44
(UTC+00:00)

ISS - Visible Passes

Search period start: 18 October 2019 00:00
Search period end: 28 October 2019 00:00
Orbit: 411 x 421 km, 51.6° (Epoch: 18 October)

Date Brightness Start Highest point End Pass type
(mag) Time Alt. Az. Time Alt. Az. Time Alt. Az.
23 Oct -0.9 05:35:57 10° S 05:38:22 18° SE 05:40:46 10° E visible
24 Oct -0.6 04:48:52 10° SSE 04:49:57 11° SE 04:51:02 10° ESE visible
25 Oct -2.6 05:34:21 10° SW 05:37:34 44° SE 05:40:49 10° ENE visible
26 Oct -1.8 04:46:32 12° SSW 04:49:03 27° SE 04:51:57 10° E visible
27 Oct -1.2 04:00:33 17° SE 04:00:33 17° SE 04:02:50 10° E visible
27 Oct -3.8 05:33:33 10° WSW 05:36:56 79° NNW 05:40:18 10° ENE visible
